Brookings, OR

5:44 PM PST on February 10, 2016 (GMT -0800)
Brookings State

Weather History for KBOK - November, 2012

Change the Weather History Date:

Monday, November 12, 2012

  Actual Average Record
Temperature  
Mean Temperature 50 °F -  
Max Temperature 54 °F 59 °F 74 °F (1942)
Min Temperature 46 °F 44 °F 31 °F (1978)
Degree Days  
Heating Degree Days 15    
Moisture  
Dew Point 50 °F    
Average Humidity 99    
Maximum Humidity 100    
Minimum Humidity 87    
Precipitation  
Precipitation 0.28 in - - ()
Sea Level Pressure  
Sea Level Pressure 30.27 in    
Wind  
Wind Speed 5 mph (SE)    
Max Wind Speed 14 mph    
Max Gust Speed -    
Visibility 4 miles    
Events Rain    
Averages and records for this station are not official NWS values.
T = Trace of Precipitation, MM = Missing Value Source: NWS Daily Summary

Daily Weather History Graph

Daily Weather History Graph

Search for Another Location

Airport or City:

Trip Planner

Search our weather history database for the weather conditions in past years. The results will help you decide how hot, cold, wet, or windy it might be!

Date:

Astronomy

Nov. 12, 2012 Rise Set
Actual Time 7:04 AM PST 4:58 PM PST
Civil Twilight 6:34 AM PST 5:27 PM PST
Nautical Twilight 6:00 AM PST 6:01 PM PST
Astronomical Twilight 5:27 AM PST 6:34 PM PST
Moon 5:35 AM PST (11/12) 4:07 PM PST (11/12)
Length of Visible Light 10h 53m
Length of Day
9h 53m
Waning Crescent, 2% of the Moon is Illuminated
Nov 12
Waning Crescent
Nov 13
New
Nov 20
First Quarter
Nov 28
Full
Dec 6
Last Quarter

Hourly Weather History & Observations

Time (PST) Temp. Windchill Dew Point Humidity Pressure Visibility Wind Dir Wind Speed Gust Speed Precip Events Conditions
12:04 AM 48.2 °F - 44.6 °F 87% 30.31 in 8.0 mi ESE 4.6 mph - 0.00 in Rain Light Rain
12:21 AM 48.2 °F - 44.6 °F 87% 30.31 in 8.0 mi SE 4.6 mph - 0.00 in Rain Light Rain
12:47 AM 46.4 °F 45.2 °F 46.4 °F 100% 30.31 in 5.0 mi Variable 3.5 mph - 0.01 in Rain Light Rain
12:56 AM 46.9 °F - 46.9 °F 100% 30.32 in 6.0 mi East 5.8 mph - 0.01 in Rain Light Rain
1:46 AM 46.4 °F 42.9 °F 46.4 °F 100% 30.30 in 4.0 mi ESE 6.9 mph - 0.03 in Rain Light Rain
1:56 AM 46.9 °F - 46.9 °F 100% 30.32 in 8.0 mi Variable 6.9 mph - 0.03 in Rain Light Rain
2:56 AM 46.9 °F - 45.9 °F 96% 30.31 in 5.0 mi SE 8.1 mph - 0.01 in Rain Light Rain
3:43 AM 46.4 °F 43.5 °F 46.4 °F 100% 30.29 in 6.0 mi ESE 5.8 mph - 0.00 in Rain Light Rain
3:56 AM 46.9 °F - 46.9 °F 100% 30.30 in 6.0 mi SE 6.9 mph - 0.00 in Rain Light Rain
4:32 AM 48.2 °F - 48.2 °F 100% 30.28 in 10.0 mi Variable 6.9 mph - 0.00 in   Overcast
4:56 AM 48.9 °F - 47.8 °F 96% 30.29 in 9.0 mi Variable 6.9 mph - 0.00 in Rain Light Rain
5:56 AM 48.9 °F - 46.9 °F 93% 30.28 in 10.0 mi Variable 6.9 mph - 0.00 in   Overcast
6:56 AM 48.9 °F - 46.9 °F 93% 30.28 in 10.0 mi SE 8.1 mph - 0.00 in   Overcast
7:56 AM 48.9 °F - 48.9 °F 100% 30.29 in 2.0 mi SE 8.1 mph - 0.00 in Rain Light Rain
8:07 AM 48.2 °F - 48.2 °F 100% 30.28 in 1.8 mi Variable 6.9 mph - 0.02 in Rain Rain
8:18 AM 48.2 °F - 48.2 °F 100% 30.28 in 2.0 mi SE 5.8 mph - 0.02 in Rain Light Rain
8:28 AM 48.2 °F - 48.2 °F 100% 30.28 in 5.0 mi SE 6.9 mph - 0.02 in Rain Light Rain
8:56 AM 48.9 °F - 48.9 °F 100% 30.30 in 2.5 mi Variable 5.8 mph - 0.03 in Rain Light Rain
9:07 AM 48.2 °F - 48.2 °F 100% 30.28 in 3.0 mi ESE 6.9 mph - 0.00 in Rain Light Rain
9:56 AM 48.9 °F - 48.9 °F 100% 30.30 in 1.5 mi Variable 6.9 mph - 0.00 in Rain Rain
10:01 AM 48.2 °F - 48.2 °F 100% 30.29 in 1.0 mi Variable 6.9 mph - 0.01 in Rain Rain
10:44 AM 50.0 °F - 50.0 °F 100% 30.29 in 0.8 mi Variable 6.9 mph - 0.08 in Rain Rain
10:56 AM 50.0 °F - 50.0 °F 100% 30.29 in 2.0 mi East 6.9 mph - 0.09 in Rain Light Rain
11:04 AM 50.0 °F - 50.0 °F 100% 30.28 in 10.0 mi Variable 5.8 mph - 0.00 in Rain Light Rain
11:56 AM 52.0 °F - 50.9 °F 96% 30.29 in 4.0 mi South 13.8 mph - 0.01 in Rain Light Rain
12:56 PM 54.0 °F - 50.9 °F 89% 30.27 in 5.0 mi Variable 6.9 mph - 0.00 in Rain Light Rain
1:09 PM 53.6 °F - 51.8 °F 94% 30.27 in 1.8 mi South 11.5 mph - 0.00 in Rain Light Rain
1:13 PM 53.6 °F - 51.8 °F 94% 30.26 in 1.2 mi South 8.1 mph - 0.01 in Rain Light Rain
1:19 PM 51.8 °F - 51.8 °F 100% 30.27 in 2.0 mi South 6.9 mph - 0.01 in Rain Light Rain
1:29 PM 53.6 °F - 51.8 °F 94% 30.26 in 4.0 mi South 10.4 mph - 0.01 in Rain Light Rain
1:56 PM 52.9 °F - 52.0 °F 97% 30.27 in 5.0 mi Variable 4.6 mph - 0.01 in Rain Light Rain
2:13 PM 53.6 °F - 51.8 °F 94% 30.26 in 1.8 mi Variable 4.6 mph - 0.00 in Rain Rain
2:16 PM 51.8 °F - 51.8 °F 100% 30.26 in 1.0 mi Variable 5.8 mph - 0.00 in Rain Rain
2:34 PM 51.8 °F - 51.8 °F 100% 30.26 in 0.8 mi Variable 4.6 mph - 0.03 in Rain Heavy Rain
2:48 PM 51.8 °F - 51.8 °F 100% 30.26 in 1.0 mi Variable 4.6 mph - 0.03 in Rain Light Rain
2:56 PM 50.9 °F - 50.9 °F 100% 30.27 in 1.2 mi Variable 4.6 mph - 0.03 in Rain Light Rain
3:00 PM 51.8 °F - 51.8 °F 100% 30.26 in 2.0 mi Variable 3.5 mph - 0.00 in Rain Light Rain
3:13 PM 51.8 °F - 51.8 °F 100% 30.26 in 4.0 mi Calm Calm - 0.00 in   Overcast
3:45 PM 51.8 °F - 51.8 °F 100% 30.26 in 2.5 mi Variable 3.5 mph - 0.00 in Rain Light Rain
3:56 PM 50.9 °F - 50.9 °F 100% 30.27 in 1.2 mi Variable 5.8 mph - 0.00 in Rain Light Rain
4:06 PM 51.8 °F - 51.8 °F 100% 30.26 in 1.0 mi South 5.8 mph - 0.00 in Rain Light Rain
4:13 PM 51.8 °F - 51.8 °F 100% 30.26 in 0.8 mi Variable 6.9 mph - 0.01 in Rain Light Rain
4:32 PM 51.8 °F - 51.8 °F 100% 30.25 in 1.2 mi Variable 3.5 mph - 0.01 in Rain Light Rain
4:56 PM 50.9 °F - 50.9 °F 100% 30.26 in 1.0 mi Calm Calm - 0.01 in Rain Light Rain
5:01 PM 51.8 °F - 51.8 °F 100% 30.25 in 1.5 mi Calm Calm - 0.00 in Rain Light Rain
5:14 PM 51.8 °F - 51.8 °F 100% 30.25 in 2.5 mi Calm Calm - 0.01 in Rain Light Rain
5:32 PM 51.8 °F - 51.8 °F 100% 30.26 in 9.0 mi Calm Calm - 0.01 in   Overcast
5:46 PM 51.8 °F - 51.8 °F 100% 30.26 in 2.5 mi Calm Calm - 0.01 in Rain Light Rain
5:56 PM 50.9 °F - 50.9 °F 100% 30.27 in 1.5 mi Calm Calm - 0.01 in Rain Light Rain
6:06 PM 51.8 °F - 51.8 °F 100% 30.26 in 1.2 mi Calm Calm - 0.00 in Rain Light Rain
6:19 PM 51.8 °F - 51.8 °F 100% 30.26 in 1.5 mi SE 4.6 mph - 0.00 in Rain Light Rain
6:34 PM 51.8 °F - 51.8 °F 100% 30.26 in 2.0 mi Calm Calm - 0.00 in Rain Light Rain
6:39 PM 51.8 °F - 51.8 °F 100% 30.26 in 2.5 mi SE 4.6 mph - 0.01 in Rain Light Rain
6:49 PM 51.8 °F - 51.8 °F 100% 30.26 in 1.5 mi ESE 4.6 mph - 0.01 in Rain Light Rain
6:56 PM 50.9 °F - 50.9 °F 100% 30.27 in 2.0 mi Calm Calm - 0.01 in Rain Light Rain
7:09 PM 51.8 °F - 51.8 °F 100% 30.26 in 3.0 mi SE 3.5 mph - 0.00 in Rain Light Rain
7:19 PM 51.8 °F - 51.8 °F 100% 30.26 in 2.5 mi Calm Calm - 0.01 in Rain Light Rain
7:38 PM 51.8 °F - 51.8 °F 100% 30.26 in 4.0 mi Calm Calm - 0.01 in Rain Light Rain
7:56 PM 50.9 °F - 50.9 °F 100% 30.27 in 1.8 mi SE 3.5 mph - 0.01 in Rain Light Rain
8:33 PM 51.8 °F - 51.8 °F 100% 30.27 in 2.5 mi Calm Calm - 0.01 in Rain Light Rain
8:43 PM 51.8 °F - 51.8 °F 100% 30.27 in 1.8 mi Calm Calm - 0.01 in Rain Light Rain
8:56 PM 50.9 °F - 50.9 °F 100% 30.27 in 2.0 mi Calm Calm - 0.02 in Rain Light Rain
9:05 PM 51.8 °F - 51.8 °F 100% 30.26 in 3.0 mi Calm Calm - 0.00 in Rain Light Rain
9:12 PM 51.8 °F - 51.8 °F 100% 30.26 in 4.0 mi ESE 4.6 mph - 0.00 in   Overcast
9:56 PM 52.0 °F - 52.0 °F 100% 30.27 in 10.0 mi SE 5.8 mph - 0.00 in   Overcast
10:32 PM 51.8 °F - 51.8 °F 100% 30.26 in 9.0 mi Variable 4.6 mph - N/A   Overcast
10:47 PM 51.8 °F - 51.8 °F 100% 30.26 in 10.0 mi ESE 5.8 mph - N/A   Overcast
10:56 PM 52.0 °F - 52.0 °F 100% 30.27 in 10.0 mi SE 6.9 mph - N/A   Overcast
11:11 PM 51.8 °F - 51.8 °F 100% 30.26 in 2.5 mi Variable 6.9 mph - 0.00 in Rain Light Rain
11:15 PM 51.8 °F - 51.8 °F 100% 30.26 in 3.0 mi Variable 4.6 mph - 0.00 in Rain Light Rain
11:31 PM 51.8 °F - 51.8 °F 100% 30.25 in 10.0 mi Variable 4.6 mph - 0.00 in   Overcast
11:56 PM 52.9 °F - 52.9 °F 100% 30.26 in 10.0 mi Variable 3.5 mph - 0.00 in   Overcast